Location: *
(45.9500°N, 9.0833°E)
Time: 17:19:19
(UTC+00:00)

NOSS 3-3 (A) - Pass Details

Date: 03 March 2021
Orbit: 815 x 1397 km, 63.4° (Epoch: 15 April)

Event Time Altitude Azimuth Distance (km) Brightness Sun altitude
Rises 20:08:30 0° 321° (NW) 3,953 8.1 -30.6°
Reaches altitude 10° 20:11:03 10° 322° (NW) 3,070 7.3 -31.0°
Maximum altitude 20:18:34 80° 50° (NE) 1,295 4.4 -32.2°
Enters shadow 20:18:47 80° 72° (ENE) 1,300 4.4 -32.2°
